Simultaneous Nadir Overpasses (SNOs) Predictions

Prediction of SNOs between GOES-16 and METOP-B Satellite Orbit:

Table of predicted SNOs for the next 14.0 days since TLE Epoch: 8/12/2023
Index Date Time (GOES-16) GOES-16 Lat,Lon METOP-B Lat,Lon Distance(km) Time Diff (sec)
1 08/13/2023 02:24:22 0.01, -75.21 0.34, -73.58 185.23 80
2 08/14/2023 14:43:14 -0.03, -75.23 0.60, -78.16 333.05 80
3 08/15/2023 14:19:54 -0.02, -75.23 -0.48, -73.15 237.01 80
4 08/17/2023 02:41:33 0.01, -75.24 -0.56, -77.75 286.43 80
5 08/18/2023 02:18:14 0.02, -75.25 0.58, -72.76 283.97 80
6 08/19/2023 14:39:44 -0.01, -75.28 0.46, -77.31 232.30 80
7 08/20/2023 14:16:25 -0.02, -75.30 -0.68, -72.33 338.47 80
8 08/22/2023 02:38:04 0.01, -75.31 -0.35, -76.92 183.94 80
9 08/23/2023 02:14:43 0.01, -75.33 0.74, -71.92 387.06 80
10 08/24/2023 14:36:15 -0.01, -75.36 0.24, -76.49 128.54 80
11 08/25/2023 14:12:54 -0.00, -75.38 -0.85, -71.49 442.47 80
